Lid_Strength_Index
5 5 4 4 4 3 3 2 2 2 2 2 1 1 1 1 1 1 1 1 1 1 1 1 0 0 0 0 0 0 0 0 0
6 5 4 4 3 3 3 2 2 2 2 2 1 1 1 1 1 1 1 1 1 1 0 0 0 0 0 0 0 0 0 1 1
6 5 4 4 4 3 3 2 2 2 2 2 1 1 1 1 1 1 1 1 1 1 1 0 0 0 0 0 0 0 1 1 1
6 5 5 4 3 3 3 2 2 2 2 2 2 1 1 1 1 1 1 1 1 1 0 0 0 0 0 1 1 0 1 1 1
6 5 4 4 4 3 3 4 2 2 2 2 2 1 1 1 1 1 1 1 1 0 1 0 0 0 1 1 1 0 1 1 1
6 5 5 4 4 4 3 3 3 3 3 2 2 2 1 1 1 1 1 1 1 0 0 0 0 0 1 1 1 1 0 1 1
6 6 5 5 5 4 3 3 3 3 3 2 2 1 2 2 2 1 1 1 1 1 1 1 1 1 1 0 0 0 0 0 1
6 6 6 5 5 4 4 3 3 2 2 2 1 2 2 2 1 1 1 1 1 1 0 0 0 1 1 0 3 4 4 3 1
7 6 6 5 4 4 4 3 3 2 2 2 1 2 2 1 1 1 1 1 1 1 1 1 1 1 1 3 4 6 5 4 2
7 6 6 5 5 4 4 3 2 3 2 1 2 2 2 1 2 2 1 1 1 1 1 2 1 1 4 6 8 8 8 5 2
6 6 6 6 4 4 3 2 2 2 2 2 2 2 2 2 1 2 1 1 1 2 1 2 2 3 5 7 9 9 8 6 3
6 6 7 6 5 5 4 3 2 2 2 2 2 2 2 2 1 2 1 2 1 1 2 2 3 3 5 8 10 9 7 3 2
5 6 6 7 6 6 6 4 3 4 5 5 4 2 2 1 1 2 2 1 1 1 2 3 4 6 7 8 10 9 9 7 4
5 6 6 6 6 6 6 5 5 5 5 6 4 3 2 1 1 1 1 1 2 3 3 3 5 7 6 8 9 10 10 9 8
5 6 6 6 6 6 5 5 5 6 6 5 4 4 3 3 1 1 1 1 1 2 3 4 5 6 7 8 10 10 10 9 9
4 5 5 5 5 5 5 5 6 6 6 5 5 5 5 4 3 5 4 3 1 2 2 3 5 6 7 8 7 9 10 10 9
4 4 5 5 5 5 5 6 5 5 5 5 5 6 5 5 7 10 11 9 10 11 11 9 7 4 5 6 10 12 13 13 12
4 4 5 5 6 5 5 6 6 5 4 4 5 5 5 5 6 10 12 14 12 14 15 14 11 10 11 8 11 14 13 13 13
4 4 4 5 5 6 5 5 6 6 5 4 5 6 4 6 5 7 8 11 13 13 14 14 14 13 13 14 13 12 12 12 12
3 3 3 4 5 5 5 6 5 5 5 5 6 6 7 6 5 5 6 7 9 12 13 13 14 14 14 13 13 12 13 13 12